Location: Unspecified
(19.4000°N, 0.0000°E)
Time: 11:38:45
(UTC+00:00)

Cosmos 1850 Rocket - Visible Passes

Search period start: 04 April 2026 00:00
Search period end: 14 April 2026 00:00
Orbit: 750 x 781 km, 74.0° (Epoch: 29 March)

Date Brightness Start Highest point End Pass type
(mag) Time Alt. Az. Time Alt. Az. Time Alt. Az.
4 Apr 6.8 02:56:40 10° NE 02:59:00 13° ENE 03:01:21 10° E visible
4 Apr 4.3 04:36:12 10° NNW 04:41:00 41° W 04:45:49 10° S visible
5 Apr 3.8 03:58:01 10° NNW 04:03:11 86° WSW 04:08:19 10° SSE visible
6 Apr 6.4 03:20:21 10° N 03:32:14 - SSE 03:21:07 14° N visible
